IW2HNF-3 Weather Reports


Display with metric or nautical units.
time (UTC)temp
F
wind
direction
speed
MPH
gust
MPH
rain 1hr
in
rain 24hr
in
rain mn
in
humidity
%
barometer
mb
20260506102035 58 0.0 1.0 0.00 0.70 0.41 95 1007.0
20260506101059 58 0.0 1.0 0.00 0.70 0.41 98 1006.9
20260506100923 57 0.0 1.0 0.00 0.71 0.41 99 1007.0
20260506095100 57 0.0 1.0 0.05 0.71 0.41 99 1007.0
20260506094035 56 0.0 2.0 0.07 0.72 0.41 98 1007.0
20260506093100 56 0.0 1.0 0.09 0.73 0.41 97 1007.0
20260506092038 55 0.0 1.0 0.13 0.73 0.41 97 1006.9
20260506091059 55 0.0 1.0 0.21 0.74 0.41 97 1006.5
20260506090036 55 0.0 1.0 0.25 0.74 0.41 97 1005.7
20260506085101 55 0.0 1.0 0.22 0.70 0.37 97 1006.0
20260506084036 55 0.0 2.0 0.20 0.67 0.34 97 1006.8
20260506083059 55 0.0 2.0 0.19 0.65 0.32 97 1007.1
20260506082036 55 0.0 1.0 0.15 0.63 0.28 97 1007.2
20260506081100 55 0.0 1.0 0.07 0.56 0.20 97 1007.1
20260506080748 55 0.0 1.0 0.04 0.53 0.17 97 1007.2
20260506073059 56 0.0 1.0 0.01 0.53 0.13 97 1007.0
20260506072036 56 0.0 1.0 0.01 0.56 0.13 97 1007.0
20260506071100 56 0.0 2.0 0.01 0.58 0.13 97 1007.1
20260506062035 56 0.0 1.0 0.01 0.76 0.12 97 1007.3
20260506061100 56 0.0 1.0 0.02 0.78 0.12 97 1007.4
20260506060748 55 0.0 2.0 0.02 0.78 0.11 97 1007.3
20260506051100 55 0.0 1.0 0.06 0.78 0.09 97 1007.6
20260506045059 55 0.0 1.0 0.02 0.74 0.06 97 1007.8
20260506044036 55 0.0 1.0 0.02 0.74 0.06 97 1007.9
20260506043100 55 0.0 1.0 0.02 0.74 0.06 97 1007.9
20260506042036 55 0.0 2.0 0.02 0.73 0.05 97 1008.0
20260506041100 55 0.0 1.0 0.01 0.72 0.04 97 1008.1
20260506040748 55 0.0 1.0 0.02 0.72 0.04 97 1008.2
20260506035100 55 0.0 2.0 0.02 0.72 0.04 97 1008.1
20260506034036 55 0.0 2.0 0.02 0.72 0.04 97 1008.1
20260506033100 55 0.0 1.0 0.04 0.72 0.04 97 1008.1
20260506032036 55 0.0 1.0 0.02 0.71 0.02 97 1008.0
20260506031100 55 0.0 1.0 0.02 0.71 0.02 97 1008.3
20260506030036 55 0.0 2.0 0.01 0.70 0.01 97 1008.6
20260506025100 55 0.0 1.0 0.01 0.70 0.01 97 1008.8
20260506024036 55 0.0 1.0 0.01 0.70 0.01 97 1008.8
20260506023101 55 0.0 1.0 0.00 0.69 0.00 97 1009.0
20260506022036 55 0 0.0 3.0 0.00 0.69 0.00 97 1009.1
20260506021100 55 106 1.0 4.0 0.00 0.69 0.00 97 1009.2
20260506020748 55 0.0 2.0 0.00 0.69 0.00 97 1009.3
20260506015100 55 0.0 1.0 0.00 0.69 0.00 97 1009.2
20260506014037 55 0.0 2.0 0.00 0.69 0.00 97 1009.2
20260506013100 55 0.0 2.0 0.00 0.69 0.00 97 1009.2
20260506012037 55 0.0 2.0 0.00 0.69 0.00 97 1009.2
20260506011100 55 0.0 1.0 0.00 0.69 0.00 97 1009.3
20260506010037 55 0.0 1.0 0.00 0.69 0.00 97 1009.5
20260506005100 55 0.0 1.0 0.00 0.69 0.00 97 1009.6
20260506004037 56 0.0 1.0 0.00 0.69 0.00 97 1009.8
20260506002036 55 0.0 1.0 0.00 0.69 0.00 97 1009.9
20260506001100 55 0.0 1.0 0.00 0.69 0.00 97 1010.0
20260506000748 55 0.0 1.0 0.00 0.69 0.00 97 1010.0
20260505235101 55 0.0 1.0 0.00 0.69 0.00 97 1010.2
20260505234038 55 0.0 1.0 0.00 0.69 0.00 97 1010.3
20260505233101 55 0.0 1.0 0.00 0.69 0.00 97 1010.4
20260505232037 55 0.0 1.0 0.00 0.69 0.00 97 1010.3
20260505231101 55 0.0 1.0 0.00 0.69 0.00 97 1010.5
20260505230036 55 0.0 1.0 0.00 0.69 0.00 97 1010.6
20260505225102 55 0.0 1.0 0.00 0.69 0.00 97 1010.6
20260505224037 55 0.0 1.0 0.00 0.69 0.00 97 1010.7
20260505223101 55 0.0 1.0 0.00 0.69 0.00 97 1010.8
20260505222036 55 0.0 1.0 0.00 0.69 0.00 97 1010.8
20260505221100 55 0.0 1.0 0.00 0.69 0.00 97 1010.8
20260505220749 55 0.0 1.0 0.00 0.69 0.00 97 1010.9
20260505215100 55 0.0 1.0 0.00 0.69 0.69 97 1010.9
20260505214037 55 0.0 1.0 0.00 0.69 0.69 97 1011.1
20260505213102 55 0.0 1.0 0.00 0.69 0.69 97 1011.3
20260505212037 55 0.0 1.0 0.00 0.69 0.69 97 1011.4
20260505211100 55 0.0 1.0 0.01 0.69 0.69 97 1011.4
20260505210037 55 0.0 1.0 0.02 0.69 0.69 97 1011.4
20260505205101 55 0.0 1.0 0.02 0.69 0.69 97 1011.5
20260505204037 55 0.0 1.0 0.04 0.69 0.69 97 1011.6
20260505203101 55 0.0 1.0 0.04 0.69 0.69 97 1011.6
20260505202037 55 0.0 1.0 0.04 0.69 0.69 97 1011.6
20260505201101 55 0.0 1.0 0.02 0.67 0.67 97 1011.6
20260505200749 55 0.0 1.0 0.01 0.66 0.66 97 1011.5
20260505195101 55 0.0 1.0 0.01 0.66 0.66 97 1011.4
20260505194037 55 0.0 1.0 0.00 0.65 0.65 97 1011.4
20260505193101 55 0.0 2.0 0.00 0.65 0.65 97 1011.3
20260505192037 55 0.0 1.0 0.00 0.65 0.65 97 1011.3
20260505191104 55 0.0 1.0 0.00 0.65 0.65 97 1011.3
20260505185102 55 0.0 1.0 0.00 0.65 0.65 97 1010.9
20260505184037 55 0.0 1.0 0.00 0.65 0.65 97 1011.0
20260505183101 55 0.0 1.0 0.00 0.65 0.65 97 1011.0
20260505182037 55 0.0 1.0 0.00 0.65 0.65 97 1011.0
20260505181101 55 0.0 1.0 0.01 0.65 0.65 97 1011.0
20260505180749 55 0.0 1.0 0.02 0.65 0.65 97 1011.0
20260505175101 55 0.0 1.0 0.02 0.65 0.65 97 1011.0
20260505174037 55 0.0 1.0 0.02 0.65 0.65 96 1011.0
20260505173101 55 0.0 1.0 0.04 0.65 0.65 96 1011.0
20260505172037 55 0.0 1.0 0.04 0.65 0.65 96 1011.0
20260505171101 55 0.0 1.0 0.04 0.64 0.64 96 1011.1
20260505170037 55 0.0 2.0 0.02 0.63 0.63 96 1011.0
20260505165103 55 0.0 2.0 0.04 0.63 0.63 95 1011.0
20260505164037 55 0.0 2.0 0.06 0.63 0.63 95 1011.1
20260505163103 55 203 0.0 3.0 0.06 0.61 0.61 95 1011.1
20260505162037 55 3 2.0 6.0 0.08 0.61 0.61 94 1011.2
20260505161102 55 0.0 2.0 0.08 0.60 0.60 94 1011.2
20260505160749 55 282 2.0 8.0 0.08 0.60 0.60 94 1011.2
20260505153101 55 27 1.0 5.0 0.05 0.56 0.56 94 1011.3
20260505152038 55 66 1.0 3.0 0.02 0.53 0.53 94 1011.4
20260505151102 55 56 2.0 5.0 0.01 0.52 0.52 93 1011.5
20260505124037 55 110 2.0 7.0 0.04 0.50 0.50 93 1012.1
20260505123102 55 97 0.0 3.0 0.04 0.48 0.48 93 1012.1
20260505122038 55 128 1.0 4.0 0.04 0.48 0.48 93 1012.1
20260505121102 55 0.0 0.0 0.05 0.48 0.48 93 1012.1
20260505120750 55 0.0 0.0 0.05 0.48 0.48 93 1012.1
20260505115102 55 270 1.0 4.0 0.05 0.47 0.47 94 1012.1
20260505114038 55 270 0.0 2.0 0.04 0.46 0.46 94 1012.2
20260505113102 55 270 1.0 2.0 0.04 0.45 0.45 93 1012.2
20260505112038 55 296 2.0 4.0 0.05 0.45 0.45 93 1012.2
20260505111102 55 270 0.0 3.0 0.04 0.44 0.44 93 1012.3